Regional Weather Roundup
Issued by NWS Northern Indiana

Home | Current Version | Previous Version | Graphics & Text | Print | Product List | Glossary On
Versions: 1 2 3 4 5 6 7 8 9 10 11 12 13 14 15 16 17 18 19 20 21 22 23 24 25 26 27 28 29 30 31 32 33 34 35 36 37 38 39 40 41 42 43 44 45 46 47 48 49 50
000
ASUS43 KIWX 200910
RWRIWX

KIWX WEATHER ROUNDUP
NATIONAL WEATHER SERVICE NORTHERN INDIANA
400 AM EST MON FEB 20 2017

NOTE: "FAIR" INDICATES FEW OR NO CLOUDS BELOW 12,000 FEET WITH NO
SIGNIFICANT WEATHER AND/OR OBSTRUCTIONS TO VISIBILITY.

* THESE STATIONS ARE NOT UNDER NWS QUALITY CONTROL. THEY ALSO MAY NOT
  REPORT WEATHER SUCH AS PRECIPITATION OR FOG.

INZ001>027-201000-
NORTHERN INDIANA

CITY           SKY/WX    TMP DP  RH WIND       PRES   REMARKS
GARY*          CLOUDY    41  39  92 SE3       30.14S
VALPARAISO     CLOUDY    41  35  79 E3        30.15S
MICHIGAN CITY* CLOUDY    41  32  70 SE3       30.15S
LAPORTE*       CLOUDY    39  30  69 CALM      30.16S
KNOX*          CLOUDY    36  21  55 CALM      30.15S
SOUTH BEND     CLOUDY    37  28  70 CALM      30.17R
GOSHEN         CLOUDY    34  28  79 CALM      30.17R
MONTICELLO*    MOCLDY    39  38  94 SE3       30.15S FOG
LOGANSPORT*    PTCLDY    37  37 100 E3        30.16S FOG
ROCHESTER*     CLOUDY    36  34  93 CALM      30.17R
WARSAW*        PTCLDY    36  32  87 CALM      30.16S
ANGOLA*        CLEAR     36  34  93 CALM      30.16S
FORT WAYNE     MOCLDY    36  32  85 CALM      30.17S
HUNTINGTON*    CLOUDY    35  34  96 CALM      30.16F
PERU/GRISSOM   CLOUDY    41  41 100 SE5       30.15R FOG
MARION*        FOG       38  38 100 SE3       30.17S VSB 3/4

$$
INZ028>050-201000-
CENTRAL INDIANA

CITY           SKY/WX    TMP DP  RH WIND       PRES   REMARKS
LAFAYETTE      FOG       41  41 100 NE3       30.14S VSB 1/2
KOKOMO*        FOG       41  41 100 CALM      30.17R VSB 1/2
MUNCIE*        CLOUDY    40  38  93 SE5       30.16F FOG
INDIANAPOLIS   FOG       44  44 100 E6        30.15F VSB 1/2

$$
MIZ043>046-050>051-056>058-064>065-071>073-077>080-201000-
SOUTHWEST LOWER MICHIGAN

CITY           SKY/WX    TMP DP  RH WIND       PRES   REMARKS
BATTLE CREEK   PTCLDY    35  29  78 CALM      30.18S
BENTON HARBOR  CLOUDY    36  28  73 SE5       30.15S
COLDWATER*     CLOUDY    33  30  90 E3        30.17S
HILLSDALE*     CLOUDY    39  32  75 SE6       30.17S
HOLLAND        CLOUDY    35  30  82 E3        30.17S
GRAND RAPIDS   PTCLDY    38  28  67 E6        30.17F
KALAMAZOO      CLOUDY    36  27  69 CALM      30.17F
STURGIS*       CLOUDY    43  28  54 E3        30.16S
THREE RIVERS*  FAIR      37  30  77 CALM      30.17S

$$
OHZ001>008-015>018-024>025-201000-
NORTHWEST OHIO

CITY           SKY/WX    TMP DP  RH WIND       PRES   REMARKS
WAUSEON*       FAIR      37  34  87 NE7       30.18F
DEFIANCE       PTCLDY    33  29  85 CALM      30.18S
FINDLAY        PTCLDY    37  31  78 S3        30.17R
TOLEDO EXPRESS CLOUDY    38  35  89 NE3       30.19S
TOLEDO METCALF CLOUDY    38  35  89 NE6       30.20R
LIMA           PTCLDY    41  41 100 CALM      30.17F FOG

$$
AND FOR LAKE MICHIGAN COASTAL AND OPEN LAKE BUOY OBSERVATIONS

STATION/POSITION TEMP    WIND        PRES    VSBY  WAVE
                 AIR SEA DIR/SP/G                  HT/PER
                 (F)     (DEG/KT/KT) (MB)    (MI)  (FT/S)
CALUMET HARBOR    44     100/  1/  4 1019.7S
MICHIGAN CITY     49     120/  6/  7   N/A
BURNS HARBOR      52     170/  7/ 10 1021.0S

$$
&&



USA.gov is the U.S. government's official web portal to all federal, state and local government web resources and services.